Temperature
16 16 16 16 16 16 16 16 16 16 16 16 15 15 15 15 15 15 15 15 15 15 15 15 15 15 15 15 15 15 15 15 15 15 15 15 15 16 15 15 15 15 15
16 16 16 16 16 16 16 16 16 16 16 15 15 15 15 15 15 15 15 15 15 15 15 15 15 15 15 15 15 15 15 15 15 15 15 15 15 15 15 15 15 15 15
16 16 16 16 16 16 15 15 15 15 15 15 15 15 15 15 15 15 15 15 15 15 14 14 14 14 15 15 15 15 15 15 15 15 15 15 15 14 14 14 14 14 14
16 16 16 16 15 15 15 15 15 15 15 15 15 15 15 15 15 15 15 15 15 14 14 14 14 14 14 14 14 14 14 14 14 14 14 14 14 14 14 14 14 14 14
16 16 16 16 16 15 15 15 15 15 15 15 15 15 15 15 14 14 14 14 14 14 14 14 14 14 14 14 14 14 14 14 14 14 14 14 14 13 13 13 14 14 14
16 16 16 15 15 15 15 15 15 15 15 15 15 15 15 14 14 14 14 14 14 14 14 14 14 14 14 14 14 13 13 13 13 13 13 13 13 13 13 13 13 13 13
15 15 15 15 15 15 15 15 15 15 15 15 15 15 15 15 15 14 14 14 14 14 14 13 13 13 13 13 14 13 13 13 13 13 13 13 13 13 13 13 13 13 13
15 15 15 15 15 15 15 15 15 15 15 15 15 15 14 14 14 14 14 14 14 13 13 13 13 13 13 13 13 13 13 13 13 13 13 13 13 13 13 13 13 13 13
15 15 15 15 15 15 15 15 15 15 15 15 15 15 15 14 14 14 14 14 14 13 13 13 13 13 13 13 13 13 13 13 13 13 12 13 12 12 12 12 12 12 12
15 15 15 15 15 15 15 15 15 15 15 15 15 15 15 15 14 14 14 14 13 13 13 13 13 13 13 13 13 13 13 13 12 12 12 12 12 12 12 12 12 12 12
15 15 15 15 15 15 15 15 15 15 14 14 14 15 15 15 15 14 13 13 13 13 13 13 13 13 13 13 13 13 13 13 13 12 12 12 12 12 11 11 11 11 11
15 15 15 15 15 15 15 15 15 15 14 14 14 14 14 14 14 14 14 13 13 13 13 13 13 13 13 13 13 12 12 13 13 12 12 12 12 11 11 11 11 11 11
15 14 14 14 15 15 15 15 14 14 14 14 14 14 14 14 14 14 14 13 13 13 13 13 13 13 13 13 13 12 12 12 12 12 12 12 12 12 11 11 11 11 11
15 15 14 14 14 14 14 14 14 14 14 14 14 14 14 14 14 14 14 14 13 13 13 13 13 12 13 13 13 13 12 12 12 12 12 12 12 12 11 11 11 11 11
15 14 14 14 14 14 14 14 14 14 14 14 14 14 14 14 14 14 14 14 13 13 12 12 12 12 12 12 12 12 12 12 12 12 12 12 12 11 11 11 11 11 11
15 14 14 14 14 14 14 14 14 14 14 14 14 14 14 14 14 14 14 14 14 13 13 12 13 12 12 12 12 12 12 12 12 12 12 12 11 11 11 11 11 11 11
14 14 14 14 14 14 14 14 14 14 14 14 14 14 14 13 13 13 13 13 13 13 13 13 12 12 12 12 12 12 12 12 12 11 12 11 11 11 11 11 11 11 11
14 14 14 14 14 14 14 14 14 14 14 14 13 13 13 13 13 13 13 13 13 13 13 13 12 12 12 12 11 11 11 11 11 11 11 11 11 11 11 11 11 11 10
14 14 14 14 14 14 14 14 14 14 13 13 13 13 13 13 13 13 13 13 13 13 13 12 12 12 12 11 11 11 11 11 11 11 11 11 11 11 11 10 10 10 10
14 14 14 14 14 14 14 13 13 13 13 13 13 13 13 13 13 13 13 13 13 12 12 12 12 12 11 11 11 11 11 11 10 11 11 10 10 10 10 10 10 10 10
14 14 14 14 14 14 14 13 13 13 13 13 13 13 13 13 13 13 13 13 12 12 12 12 11 11 11 11 11 11 11 10 10 10 10 10 10 10 10 10 10 10 10
14 14 14 14 14 14 13 13 13 13 13 13 13 13 12 13 12 12 12 12 12 12 12 11 11 11 11 11 11 11 10 10 10 10 10 10 10 10 10 10 10 9 9
14 13 13 13 13 13 13 13 13 13 13 13 13 12 12 12 12 12 12 12 12 12 12 11 11 11 11 11 10 10 10 10 10 10 9 9 9 9 9 9 9 9 9
13 13 13 13 13 13 13 13 13 13 12 12 12 12 12 12 12 12 12 12 12 12 11 11 11 11 11 10 10 10 10 10 9 9 9 9 9 9 9 9 9 9 9
13 13 13 13 13 13 13 13 13 13 12 12 12 12 12 12 12 12 12 12 12 11 11 11 11 10 10 10 10 10 10 9 9 9 9 9 9 9 9 9 8 8 8
13 13 13 13 13 13 13 13 13 12 12 12 12 12 12 12 12 12 12 11 11 11 11 11 10 10 10 10 10 9 9 9 9 9 9 8 8 8 8 8 8 8 8
Wind_Speed
3 4 4 4 5 6 5 4 5 6 6 8 8 9 8 9 9 10 9 11 11 11 11 11 11 11 10 10 10 10 10 10 10 11 11 11 11 10 10 10 10 10 10
3 4 4 4 5 6 5 5 6 5 5 6 6 8 8 8 8 9 9 10 11 11 11 11 11 11 11 11 11 10 11 11 11 11 11 11 11 11 11 11 10 10 10
6 5 4 3 4 6 7 7 6 5 4 4 5 6 6 7 7 8 8 8 9 9 10 10 11 12 12 12 12 11 11 11 11 11 11 11 10 11 11 11 11 11 10
8 6 3 2 5 6 5 3 3 4 4 4 4 3 4 5 5 6 7 7 8 8 8 10 11 11 11 11 12 11 11 12 11 11 11 11 10 11 11 12 11 11 12
6 6 3 3 5 4 3 3 4 3 3 3 3 3 3 3 4 7 6 7 8 9 9 10 11 11 12 11 11 11 11 11 11 12 12 12 12 12 12 12 12 12 12
5 5 3 3 5 3 3 3 3 2 2 2 3 4 3 2 3 4 5 6 7 8 9 9 9 10 11 11 11 11 11 11 12 12 12 12 12 12 12 12 12 12 13
4 3 3 3 3 2 3 3 3 2 2 2 3 2 3 3 3 2 3 4 6 7 8 9 8 8 9 10 11 11 11 11 11 11 11 11 11 12 12 12 12 13 13
3 2 2 2 2 2 2 2 3 1 1 1 1 1 1 3 3 2 2 3 4 6 7 7 8 9 9 9 10 11 10 10 10 10 10 11 11 11 11 11 12 12 12
4 3 3 2 2 2 2 2 2 2 0 1 1 1 1 1 1 2 2 3 3 3 4 5 8 9 9 9 9 9 9 9 8 9 9 9 9 9 9 10 11 11 11
2 2 2 3 2 1 2 2 2 2 1 1 1 1 1 2 2 1 2 2 3 4 3 4 7 8 9 10 9 9 9 8 8 8 8 8 8 9 9 10 10 10 10
1 1 2 2 1 1 1 1 2 1 1 0 0 0 1 0 1 2 0 1 2 2 3 4 5 6 8 9 9 9 9 8 8 8 8 9 9 9 10 10 10 9 9
0 1 1 1 1 1 1 2 1 1 0 1 1 0 0 0 0 1 1 1 1 1 2 3 4 5 7 8 8 9 8 8 8 8 8 9 9 9 9 9 8 8 8
1 1 1 1 1 1 2 2 1 1 1 1 1 0 0 0 0 1 2 2 1 0 1 1 2 5 6 7 7 8 8 7 7 7 7 7 7 7 7 6 6 7 7
2 2 2 1 1 1 1 1 1 0 1 1 1 1 0 1 1 1 1 2 1 0 1 0 1 4 6 7 7 8 7 6 6 6 6 6 6 6 5 5 5 5 6
2 2 2 2 2 1 1 1 1 0 0 1 1 1 1 1 1 1 1 2 2 1 1 1 1 2 6 7 8 7 6 5 5 5 5 5 5 5 5 5 5 5 5
2 2 2 3 2 1 1 1 1 1 2 1 1 1 1 1 1 0 0 1 1 2 2 1 1 2 5 6 7 7 7 5 5 5 4 4 4 4 4 4 3 3 3
3 3 2 2 2 2 2 2 2 1 1 1 1 2 1 1 1 0 0 0 1 2 2 0 1 2 3 3 4 6 6 6 5 5 4 4 4 3 3 2 2 2 2
3 3 3 1 2 2 2 2 2 2 1 1 1 2 1 1 1 0 0 0 1 1 2 2 1 1 1 2 4 4 4 5 6 5 5 4 4 3 2 2 2 2 1
2 2 2 2 1 1 1 2 2 2 1 1 1 2 2 2 1 1 1 0 0 1 2 2 2 1 1 1 1 2 3 3 4 5 5 5 5 5 4 3 3 3 2
2 2 2 2 2 1 1 1 1 1 1 1 1 1 1 2 2 2 1 1 1 1 2 2 2 1 1 1 1 1 1 1 2 3 4 5 6 6 5 5 5 4 4
2 2 2 2 1 1 0 0 0 0 1 1 1 1 2 3 3 2 1 1 1 1 1 1 2 1 2 2 2 2 2 2 2 2 2 3 4 5 6 6 6 6 5
2 2 2 2 2 1 1 1 1 1 1 2 1 2 2 3 3 3 3 2 2 2 2 2 1 2 3 2 2 2 2 2 2 2 2 2 3 3 5 6 7 8 7
1 2 2 2 2 2 2 1 1 2 2 2 2 2 1 2 2 1 2 3 2 1 1 2 2 3 3 3 2 3 3 3 3 3 1 3 2 3 4 5 8 9 9
2 2 2 2 2 2 2 2 2 2 2 1 2 2 3 2 1 1 1 1 1 1 1 1 1 2 1 1 3 3 3 2 2 1 2 3 3 3 3 5 8 10 9
1 2 2 2 2 2 3 3 1 2 2 2 1 2 3 3 2 2 2 1 1 0 1 1 1 1 1 2 2 1 1 1 2 3 1 2 2 2 2 3 7 9 9
2 2 2 2 3 2 3 3 2 2 2 2 2 2 3 3 3 3 3 2 2 2 1 0 0 1 1 2 2 3 3 3 2 3 3 2 2 1 2 2 3 5 6
Wind_Direction
66 81 87 93 90 87 84 69 68 64 56 54 54 62 63 67 73 82 78 75 71 67 66 67 68 67 67 69 69 68 66 64 61 61 60 60 61 65 69 68 68 65 61
75 77 74 83 85 87 84 81 75 69 65 64 55 56 60 64 73 85 89 80 76 73 68 66 68 68 71 73 71 68 66 64 64 63 62 62 65 68 70 69 67 65 62
75 74 57 65 81 84 77 74 66 64 70 71 68 64 62 64 67 72 86 92 86 79 75 70 71 70 71 73 72 70 67 66 65 64 62 61 68 72 73 72 68 64 64
74 79 71 61 85 84 82 76 70 59 53 52 53 56 64 69 65 71 76 89 95 88 81 76 74 71 71 73 74 71 69 65 64 61 59 59 68 77 75 73 70 68 69
78 81 75 80 79 80 73 73 73 71 66 59 58 63 59 63 49 62 62 74 92 98 95 84 78 72 70 70 71 71 70 68 65 62 61 61 69 75 74 71 69 70 70
70 88 96 89 87 80 79 80 89 78 85 67 65 63 67 70 61 54 56 61 72 89 101 100 89 77 71 67 67 69 70 70 66 63 61 63 66 69 71 70 71 71 71
69 86 85 84 89 94 103 99 93 72 70 82 77 59 44 60 81 66 63 59 56 68 86 96 99 95 81 69 65 66 67 67 65 63 61 62 65 66 69 71 71 72 72
44 82 98 90 103 100 93 93 94 68 37 75 104 90 57 20 27 57 76 80 66 66 70 78 87 95 97 88 72 68 64 63 62 63 62 61 63 66 69 72 73 73 73
48 47 77 96 113 127 128 125 116 113 354 328 75 111 117 123 7 6 60 77 78 75 72 75 74 82 95 94 86 74 66 62 62 63 65 65 66 72 77 77 75 74 74
56 45 79 102 110 117 139 170 143 152 163 284 330 1 106 138 138 34 7 51 70 77 71 74 75 75 89 92 90 85 74 63 63 63 64 63 67 77 84 87 81 75 73
60 47 80 96 117 125 136 119 87 88 138 168 240 357 14 254 165 152 155 358 40 65 78 78 86 85 87 95 94 91 83 73 66 63 63 65 71 81 87 87 84 79 76
122 61 89 96 128 130 128 122 123 107 76 31 19 46 172 182 162 136 164 177 116 81 88 86 94 100 96 95 100 98 92 81 73 68 65 67 72 79 85 87 85 84 82
169 184 105 79 74 82 97 124 146 167 173 166 193 243 343 352 95 112 137 162 129 149 86 95 118 121 110 106 108 105 99 90 81 76 72 72 75 79 83 85 80 80 77
168 152 128 121 101 110 104 109 116 220 186 165 150 122 71 15 52 80 128 138 148 144 86 145 107 131 128 126 123 119 110 104 97 87 78 75 76 79 83 85 80 78 75
164 146 161 159 138 114 112 113 125 326 50 78 72 71 86 61 60 29 60 132 157 180 200 194 146 149 134 129 136 132 125 121 117 111 100 91 86 86 84 82 79 75 72
165 163 180 162 156 161 150 136 146 144 99 99 112 83 60 76 69 61 9 354 90 158 174 183 178 151 140 135 144 141 140 135 136 132 125 115 108 102 94 89 88 80 72
174 172 187 173 160 173 163 153 168 157 153 178 169 146 157 140 121 55 50 34 48 99 131 159 124 119 117 131 139 148 151 142 146 150 151 149 142 135 127 117 109 96 85
183 180 168 173 176 186 177 177 181 183 198 196 161 147 158 123 113 110 12 121 140 130 140 160 187 160 143 151 154 160 159 162 161 165 169 173 171 165 163 167 166 146 130
178 190 165 164 182 202 169 175 173 181 187 192 171 173 174 157 166 169 159 162 163 122 136 157 190 200 189 156 156 181 171 172 183 182 185 190 194 195 196 197 199 197 194
187 200 186 169 181 193 181 178 164 154 178 197 189 160 168 166 171 175 169 217 134 122 133 146 173 201 203 203 171 205 220 216 213 187 194 199 204 206 209 214 216 216 218
208 207 192 165 160 168 154 88 179 167 175 165 118 96 77 67 67 75 128 196 143 145 152 169 189 209 209 188 210 213 213 234 235 190 193 200 197 205 215 224 226 223 227
202 213 186 174 164 178 100 70 34 283 225 193 158 126 119 90 76 65 64 76 132 175 202 196 213 211 228 221 209 206 205 217 258 231 180 221 191 208 212 208 215 216 221
197 211 202 184 175 153 151 183 261 281 247 210 169 153 134 106 96 102 84 68 62 104 186 193 212 229 227 221 208 229 228 217 225 224 172 243 225 220 216 210 214 217 220
209 211 208 190 172 187 190 212 250 252 254 219 174 173 161 151 157 115 138 108 44 18 228 204 205 237 234 231 216 220 220 233 245 238 162 230 245 237 240 217 215 214 217
209 205 200 192 186 207 200 192 203 225 243 229 208 170 158 161 180 141 138 164 174 296 61 132 172 201 234 239 200 153 189 195 260 259 222 205 245 256 247 230 219 217 223
199 198 209 200 185 196 203 197 201 205 228 235 228 209 182 178 184 176 181 187 202 228 207 235 262 254 234 245 230 198 199 212 235 250 233 197 234 233 277 253 210 219 227
Height
1543 1543 1544 1544 1544 1545 1545 1545 1545 1545 1545 1546 1546 1546 1545 1546 1546 1545 1545 1545 1544 1544 1543 1543 1543 1542 1542 1542 1542 1541 1541 1541 1541 1540 1540 1539 1539 1539 1539 1540 1540 1540 1541
1544 1545 1545 1545 1545 1546 1546 1546 1546 1546 1547 1547 1547 1547 1547 1547 1547 1546 1546 1545 1545 1544 1544 1544 1543 1543 1542 1542 1542 1542 1542 1541 1541 1540 1539 1538 1538 1538 1539 1539 1540 1540 1540
1546 1546 1546 1546 1546 1547 1547 1547 1547 1548 1548 1548 1548 1548 1548 1548 1548 1547 1547 1546 1546 1545 1545 1544 1544 1544 1543 1543 1543 1542 1542 1541 1540 1539 1538 1535 1534 1535 1537 1538 1539 1539 1540
1547 1547 1547 1547 1547 1548 1548 1548 1548 1549 1549 1549 1550 1550 1550 1550 1549 1549 1548 1547 1547 1546 1546 1545 1545 1545 1544 1544 1544 1543 1543 1542 1541 1539 1537 1533 1531 1533 1536 1538 1539 1540 1540
1548 1548 1548 1548 1548 1548 1549 1549 1549 1550 1550 1550 1550 1551 1551 1551 1551 1550 1550 1549 1548 1547 1547 1546 1546 1546 1545 1545 1545 1544 1543 1542 1541 1539 1538 1535 1533 1535 1537 1538 1539 1540 1540
1548 1548 1548 1549 1549 1549 1550 1550 1550 1551 1551 1551 1551 1551 1552 1552 1552 1552 1551 1550 1550 1549 1548 1547 1547 1547 1546 1546 1545 1545 1544 1543 1542 1541 1540 1538 1537 1537 1538 1539 1540 1540 1541
1548 1548 1549 1549 1550 1550 1550 1551 1551 1551 1552 1552 1552 1552 1553 1553 1553 1553 1552 1552 1551 1550 1549 1549 1548 1548 1547 1547 1546 1546 1545 1544 1543 1542 1541 1540 1539 1539 1539 1539 1540 1540 1541
1548 1549 1549 1549 1550 1550 1551 1551 1552 1552 1553 1553 1553 1552 1553 1555 1554 1554 1554 1553 1552 1551 1551 1550 1550 1549 1548 1548 1547 1547 1546 1545 1544 1543 1541 1540 1539 1539 1539 1539 1540 1540 1541
1548 1548 1549 1549 1550 1550 1551 1551 1552 1552 1552 1553 1553 1554 1554 1554 1554 1555 1554 1554 1553 1552 1552 1552 1551 1550 1549 1548 1548 1547 1547 1546 1545 1543 1542 1540 1538 1537 1538 1539 1540 1540 1541
1548 1548 1549 1549 1550 1550 1551 1551 1552 1552 1553 1553 1553 1553 1554 1554 1554 1555 1555 1555 1554 1553 1553 1552 1552 1551 1550 1549 1548 1548 1547 1546 1545 1544 1542 1539 1536 1535 1537 1539 1540 1541 1542
1548 1548 1549 1549 1549 1550 1550 1551 1551 1552 1552 1552 1552 1553 1553 1553 1554 1554 1554 1555 1554 1553 1553 1552 1552 1551 1551 1550 1549 1548 1548 1547 1546 1544 1542 1540 1537 1536 1538 1540 1541 1542 1542
1548 1548 1548 1548 1549 1549 1550 1550 1551 1551 1551 1552 1552 1552 1553 1553 1553 1553 1553 1553 1554 1553 1553 1552 1552 1552 1551 1550 1549 1549 1548 1547 1546 1545 1543 1542 1540 1540 1541 1541 1542 1543 1543
1547 1547 1548 1548 1548 1549 1549 1549 1550 1550 1551 1551 1551 1551 1552 1552 1552 1552 1552 1552 1553 1553 1553 1553 1552 1551 1551 1550 1550 1549 1548 1548 1547 1546 1544 1544 1543 1542 1543 1543 1543 1543 1543
1546 1547 1547 1547 1548 1548 1548 1549 1549 1549 1550 1550 1550 1551 1551 1551 1551 1551 1551 1552 1552 1552 1552 1552 1552 1551 1551 1550 1550 1549 1548 1548 1547 1546 1545 1545 1544 1544 1544 1543 1543 1543 1543
1546 1546 1546 1546 1547 1547 1548 1548 1548 1548 1549 1549 1549 1549 1550 1550 1550 1550 1551 1551 1552 1551 1551 1551 1551 1551 1550 1550 1549 1549 1548 1548 1547 1546 1546 1545 1544 1544 1544 1543 1543 1543 1543
1544 1545 1545 1545 1546 1546 1547 1547 1547 1547 1547 1548 1548 1548 1548 1548 1548 1549 1549 1550 1550 1550 1549 1549 1550 1550 1550 1549 1549 1548 1548 1547 1547 1546 1546 1545 1544 1544 1543 1543 1543 1542 1542
1543 1543 1544 1544 1545 1545 1545 1546 1546 1546 1546 1546 1547 1547 1547 1547 1547 1548 1548 1548 1548 1548 1547 1548 1548 1549 1549 1548 1548 1547 1547 1546 1546 1546 1545 1545 1544 1543 1543 1542 1542 1541 1541
1541 1542 1542 1543 1543 1544 1544 1544 1544 1545 1545 1545 1545 1545 1546 1546 1546 1546 1546 1546 1546 1546 1546 1546 1546 1547 1547 1547 1546 1546 1546 1545 1544 1544 1544 1543 1543 1542 1542 1541 1541 1540 1540
1540 1540 1541 1541 1541 1542 1542 1543 1543 1543 1543 1544 1544 1544 1544 1544 1544 1544 1544 1544 1544 1544 1544 1544 1544 1544 1545 1545 1544 1544 1544 1543 1543 1542 1542 1542 1542 1541 1540 1540 1539 1539 1538
1538 1538 1539 1539 1539 1540 1540 1541 1541 1541 1542 1542 1542 1542 1542 1542 1542 1542 1542 1542 1542 1542 1542 1542 1542 1542 1542 1542 1542 1542 1541 1541 1541 1541 1540 1540 1539 1539 1538 1538 1537 1537 1536
1535 1536 1537 1537 1537 1538 1538 1539 1539 1539 1540 1540 1540 1540 1540 1540 1540 1540 1540 1540 1540 1540 1539 1539 1539 1539 1539 1539 1539 1539 1539 1539 1538 1538 1538 1538 1537 1536 1536 1536 1535 1535 1534
1533 1534 1535 1535 1535 1535 1536 1536 1537 1537 1537 1537 1537 1537 1538 1538 1537 1537 1537 1537 1537 1537 1537 1537 1536 1536 1536 1536 1537 1536 1536 1536 1535 1536 1535 1535 1535 1534 1533 1533 1533 1532 1532
1530 1531 1532 1532 1532 1533 1533 1534 1534 1534 1535 1535 1535 1535 1535 1535 1535 1535 1534 1534 1534 1534 1534 1534 1533 1533 1533 1533 1534 1533 1533 1533 1532 1532 1533 1531 1531 1531 1530 1530 1530 1529 1529
1527 1528 1528 1529 1529 1530 1530 1531 1531 1531 1532 1532 1532 1532 1532 1532 1532 1532 1531 1531 1531 1530 1530 1530 1531 1531 1531 1531 1531 1531 1530 1530 1529 1529 1529 1528 1528 1527 1527 1526 1526 1526 1525
1524 1524 1525 1526 1526 1526 1527 1527 1528 1528 1528 1529 1529 1529 1529 1529 1529 1529 1528 1528 1527 1527 1527 1527 1528 1527 1528 1527 1527 1527 1527 1526 1525 1525 1525 1525 1524 1523 1523 1522 1522 1522 1522
1521 1522 1522 1523 1523 1523 1524 1524 1524 1524 1525 1525 1525 1525 1526 1526 1525 1525 1525 1525 1524 1524 1524 1524 1524 1524 1524 1524 1524 1524 1523 1522 1521 1521 1521 1521 1520 1520 1518 1518 1518 1518 1518